Location: Unspecified
(49.2170°N, 0.0000°E)
Time: 16:05:55
(UTC+00:00)

Vanguard 1 - Pass Details

Date: 24 June 2021
Orbit: 651 x 3832 km, 34.2° (Epoch: 23 July)

Event Time Altitude Azimuth Distance (km) Brightness Sun altitude
Rises 23:28:55 0° 266° (W) 7,974 14.8 -17.0°
Reaches altitude 10° 23:34:54 10° 261° (W) 6,862 14.3 -17.1°
Maximum altitude 23:54:34 44° 199° (SSW) 3,703 12.5 -17.4°
Drops below altitude 10° 00:07:15 10° 133° (SE) 4,542 13.1 -17.4°
Sets 00:10:18 0° 127° (SE) 5,181 13.4 -17.4°
